DELTA 1 DEB, 19590

Orbit data source: Space-Track

DELTA 1 DEB, 19590 is space debris in SSO originally from a launch on Tue, 06 Nov 1973 UTC launched from the Air Force Western Test Range (AFWTR). Debris objects in space refer to the collection of defunct objects orbiting the Earth. Examples of debris include non-operational satellites, rocket bodies, and fragments generated from explosions, collisions, or faulty payload assembly.

Loading next visibility...
Identifier
19590, 1973-086HG
Orbit
SSO
Country
Flag of USUS
Related business
Manufacturer
Unknown
Mission
Spacecraft
Bus & Motor
Unknown
Mass
Unknown
Launch date (UTC)
1973-11-06 (52 years ago)
Launch vehicle
Unknown
Launch site
Air Force Western Test Range (AFWTR)
Object type
Payload
Rocket body
Debris
Shape & HBR
Unknown shape, 0.1 m
Radar Cross Section
Small (<0.1 m²)

Expand to show TLE details & history
Last TLE update: 2 days ago

TLE from 2 days ago
0 DELTA 1 DEB
1 19590U 73086HG  26032.03850693 -.00000031  00000-0  12379-3 0  9995
2 19590 102.4693  53.1011 0045713 298.7106  86.5642 12.31849793629392
Epoch: 2026-02-01T00:55Z
TLE epoch observation values (Epoch: 2026-02-01T00:55:26.998Z)
Latitude
25.17585°
Longitude
-97.95241°
Altitude
1,542.039 km
Speed
7.098 km/s
True Right ascension
03h 08m 39s
True Declination
25° 03' 24"
Sunlit
Object was in daylight at epoch
Visualization orbit readout
Latitude
Unknown
Longitude
Unknown
Altitude
Unknown
Speed
Unknown
Apparent Right ascension
Unknown
Apparent Declination
Unknown
Sunlit
N/A
Visualization observer readout
Local Sidereal Time
03:35:20
Azimuth
Unknown
Elevation
Unknown
Doppler factor
Unknown
Orbital elements
Apogee altitude
1,575.148 km
Perigee altitude
1,502.765 km
Semi-major axis
7,917.094 km
Eccentricity
0.00457
Inclination
102.4693°
RAAN
53.1011°
Arg. of periapsis
298.7106°
True anomaly
87.08726°
Mean anomaly
86.5642°
Eccentric anomaly
86.82571°
Mean motion
3.08102 °/min
Orbital period
116.84 mins
BSTAR
0.00012379
Loading maneuver chart data...
Computing Atmospheric mass density...
Loading historical data...
Loading historical data...
Loading historical data...
Loading historical data...
Loading historical data...
Loading historical data...
Loading historical data...

Documentation

Showing up to 5 results
|